date,time,DOY,Ta_1_1_1,Pa_1_1_1,RH_1_1_1,LWin_1_1_1,LWout_1_1_1,SWin_1_1_1,SWout_1_1_1,PPFD_1_1_1,MWS_1_1_1,WD_1_1_1,SWC_1_1_1,Ts_1_1_1
[yyyy-mm-dd],[HH:MM],[ddd.ddd],[K],[Pa],[%],[W+1m-2],[W+1m-2],[W+1m-2],[W+1m-2],[µmol+1m-2s-1],[m+1s-1],[deg],[m+3m-3],[K]
2014-08-10,00:30,222.020,291.18933333333331,95306.699999999997,73.762999999999991,-3.2753333333333337,-9999.0,0.72666666666666668,-2.1696666666666662,-2.86666666666666702E-002,2.4733333333333340,148.41066666666666,0.14000000000000007,289.51533333333339
2014-08-10,01:00,222.041,290.90666666666664,95300.666666666672,75.400666666666666,-3.3766666666666669,-9999.0,0.47366666666666674,-2.4179999999999993,-2.93333333333333293E-002,2.6266666666666665,180.33266666666665,0.14000000000000007,289.43266666666659
2014-08-10,01:30,222.062,290.46766666666662,95297.666666666672,77.810666666666648,-3.7313333333333341,-9999.0,0.46399999999999991,-2.7503333333333333,-3.86666666666666686E-002,2.5699999999999998,173.47733333333332,0.14000000000000007,289.33900000000006
2014-08-10,02:00,222.083,290.23466666666678,95290.000000000000,80.216000000000022,-3.5670000000000006,-9999.0,0.76766666666666672,-2.6079999999999997,-6.20000000000000204E-002,2.4099999999999997,169.73266666666669,0.14000000000000007,289.24200000000002
2014-08-10,02:30,222.104,290.27466666666663,95295.666666666672,78.567999999999998,-3.5823333333333331,-9999.0,1.0910000000000000,-2.5103333333333335,-4.30000000000000104E-002,2.9233333333333329,178.46666666666667,0.14000000000000007,289.13966666666664
2014-08-10,03:00,222.124,290.24133333333344,95317.433333333334,78.453666666666635,-3.6469999999999998,-9999.0,0.45899999999999991,-2.4606666666666666,-4.53333333333333505E-002,3.0366666666666666,182.62400000000000,0.14000000000000007,289.04000000000002
2014-08-10,03:30,222.145,289.82200000000000,95310.399999999994,80.885666666666665,-2.9406666666666665,-9999.0,0.60266666666666657,-2.1320000000000001,-4.53333333333333366E-002,2.7199999999999993,166.97800000000001,0.14000000000000007,288.95633333333336
2014-08-10,04:00,222.166,289.72233333333332,95296.233333333337,82.032999999999987,-2.9043333333333337,-9999.0,0.64933333333333332,-2.2680000000000002,-4.00000000000000216E-002,2.7066666666666666,164.37733333333333,0.14000000000000007,288.88333333333338
2014-08-10,04:30,222.187,289.40999999999997,95309.199999999997,83.872000000000028,-3.2546666666666675,-9999.0,0.64033333333333331,-3.1586666666666670,5.90000000000000038E-002,3.2199999999999998,178.14399999999998,0.14000000000000007,288.82500000000005
2014-08-10,05:00,222.208,289.06566666666674,95326.800000000003,85.233999999999995,-3.2683333333333335,-9999.0,1.1020000000000001,-0.70433333333333314,5.7590000000000003,3.1266666666666665,174.57733333333331,0.14000000000000007,288.75299999999999
2014-08-10,05:30,222.229,289.08766666666673,95327.766666666663,84.405333333333346,-3.5046666666666657,-9999.0,5.2053333333333320,21.268000000000008,44.330000000000013,3.2066666666666666,175.72200000000001,0.14000000000000007,288.67399999999998
2014-08-10,06:00,222.249,289.30733333333325,95323.466666666660,82.310666666666677,-3.4076666666666671,-9999.0,17.134000000000000,83.022333333333336,142.95533333333333,3.0633333333333335,182.93299999999999,0.14000000000000007,288.60466666666679
2014-08-10,06:30,222.270,289.53766666666684,95336.800000000003,81.192000000000007,-3.4363333333333328,-9999.0,20.924333333333330,115.57400000000000,216.34366666666665,2.7633333333333336,183.41233333333332,0.14000000000000007,288.57899999999995
2014-08-10,07:00,222.291,289.99766666666670,95329.133333333331,78.978999999999971,-2.9033333333333333,-9999.0,44.688000000000009,246.10066666666663,447.47266666666673,2.5666666666666660,176.76599999999999,0.14000000000000007,288.59300000000002
2014-08-10,07:30,222.312,291.27100000000002,95311.199999999997,68.973666666666631,-4.4119999999999999,-9999.0,61.070999999999998,350.50033333333334,653.13333333333333,2.6366666666666663,181.23333333333332,0.14000000000000007,288.67566666666664
2014-08-10,08:00,222.333,292.05800000000005,95311.100000000006,63.364666666666658,-4.9896666666666665,-9999.0,74.868333333333339,439.92399999999992,842.32199999999989,3.1233333333333331,181.99966666666666,0.14000000000000007,288.86666666666662
2014-08-10,08:30,222.354,292.78233333333338,95312.266666666663,60.177333333333337,-4.7713333333333328,-9999.0,87.314999999999984,524.88299999999992,1026.0256666666667,3.0766666666666667,195.03333333333333,0.14000000000000007,289.10533333333331
2014-08-10,09:00,222.374,293.55100000000004,95311.366666666669,58.109333333333346,-3.9440000000000004,-9999.0,106.87066666666668,639.27800000000002,1261.2113333333332,3.1566666666666663,180.88933333333335,0.14000000000000007,289.41300000000007
2014-08-10,09:30,222.395,294.34533333333343,95322.333333333328,57.021666666666668,-5.0003333333333329,-9999.0,110.76266666666669,679.04299999999989,1344.2529999999997,2.7233333333333332,204.84399999999999,0.14000000000000007,289.77900000000005
2014-08-10,10:00,222.416,294.58066666666667,95316.333333333328,56.642000000000010,-4.7293333333333338,-9999.0,92.490333333333353,587.23699999999997,1212.1813333333334,2.7033333333333327,200.92266666666669,0.14000000000000007,290.09733333333327
2014-08-10,10:30,222.437,295.15999999999997,95303.100000000006,52.779999999999994,-4.6393333333333313,-9999.0,130.90633333333335,811.89033333333350,1647.8313333333331,3.3299999999999996,152.18833333333333,0.14000000000000007,290.34766666666667
2014-08-10,11:00,222.458,295.41966666666673,95282.633333333331,51.346000000000004,-2.5069999999999997,-9999.0,139.41000000000000,859.71666666666670,1760.1586666666665,3.4433333333333342,147.94399999999999,0.13633333333333336,290.69866666666678
2014-08-10,11:30,222.479,296.03666666666675,95245.533333333340,49.230666666666671,-4.5019999999999998,-9999.0,138.25866666666667,865.32366666666667,1790.6493333333331,2.7633333333333323,157.11099999999999,0.12999999999999992,291.00799999999998
2014-08-10,12:00,222.499,296.29633333333345,95220.033333333340,47.430666666666660,-4.7830769230769228,-9999.0,129.25500000000000,813.25333333333333,1699.1876666666669,2.5099999999999998,179.26766666666666,0.12999999999999992,291.24633333333338
2014-08-10,12:30,222.520,296.66999999999996,95199.600000000006,45.034666666666652,-3.9276666666666675,-9999.0,141.95400000000001,885.54233333333332,1843.4140000000002,2.5233333333333330,163.63333333333333,0.12999999999999992,291.41233333333338
2014-08-10,13:00,222.541,296.84733333333332,95175.899999999994,46.322333333333354,-4.3304761904761904,-9999.0,111.72499999999998,708.86200000000019,1482.7746666666665,2.1333333333333333,166.26666666666668,0.12999999999999992,291.57333333333338
2014-08-10,13:30,222.562,297.15599999999995,95147.199999999997,46.233333333333327,-2.9147368421052628,-9999.0,102.44833333333332,628.75066666666669,1335.3753333333332,2.1766666666666667,136.63333333333333,0.12999999999999992,291.61666666666673
2014-08-10,14:00,222.583,297.60933333333344,95109.899999999994,45.209333333333340,-6.6640000000000006,-9999.0,139.76200000000000,839.17333333333306,1755.3396666666667,2.2633333333333332,139.30033333333333,0.12999999999999992,291.70366666666666
2014-08-10,14:30,222.604,297.53633333333335,95079.000000000000,45.110333333333330,-4.2717647058823536,-9999.0,92.289666666666662,551.50766666666664,1164.5690000000002,2.0500000000000003,133.51133333333331,0.12999999999999992,291.88333333333327
2014-08-10,15:00,222.624,297.53866666666659,95056.733333333337,44.269999999999996,-5.8212500000000009,-9999.0,71.245333333333335,419.02400000000006,871.40933333333317,2.2300000000000000,128.17766666666665,0.12999999999999992,291.91433333333333
2014-08-10,15:30,222.645,297.30233333333337,95044.133333333331,45.098333333333322,-7.8070370370370368,-9999.0,39.711999999999996,237.13099999999994,498.75633333333343,2.4466666666666668,102.81200000000000,0.12999999999999992,291.89300000000003
2014-08-10,16:00,222.666,297.68400000000008,95018.566666666666,46.911333333333324,-5.6333333333333337,-9999.0,90.323666666666668,490.61966666666666,1022.2250000000001,1.6200000000000006,84.934000000000012,0.12999999999999992,291.86033333333336
2014-08-10,16:30,222.687,298.40633333333329,94998.699999999997,41.557999999999993,-9.0616666666666674,-9999.0,88.115000000000009,474.11533333333335,978.74799999999982,2.1733333333333329,165.03299999999999,0.12999999999999992,292.18433333333331
2014-08-10,17:00,222.708,298.48800000000011,94983.433333333334,41.919999999999995,-8.6278571428571418,-9999.0,76.784999999999997,397.00000000000000,799.76199999999994,2.1266666666666665,175.11133333333333,0.12999999999999992,292.21866666666671
2014-08-10,17:30,222.729,298.12433333333342,94971.633333333331,43.220666666666673,-9.4981818181818181,-9999.0,54.856666666666676,278.48133333333328,556.99133333333339,1.9599999999999995,152.15566666666666,0.12999999999999992,292.17966666666672
2014-08-10,18:00,222.749,297.28700000000003,94970.000000000000,48.373666666666665,-7.9738095238095248,-9999.0,12.649666666666668,81.572333333333333,191.87033333333332,2.1433333333333335,212.51066666666665,0.12999999999999992,292.08400000000006
2014-08-10,18:30,222.770,296.88666666666671,94965.233333333337,48.612999999999992,-6.3523333333333323,-9999.0,6.1446666666666676,29.433000000000000,75.290333333333336,2.5499999999999998,193.51100000000002,0.12999999999999992,291.87066666666669
2014-08-10,19:00,222.791,296.44433333333319,94951.333333333328,49.905666666666669,-6.3439999999999976,-9999.0,3.6406666666666658,13.813333333333334,38.530333333333346,2.3066666666666666,190.71133333333333,0.12999999999999992,291.60366666666664
2014-08-10,19:30,222.812,295.76600000000013,94950.000000000000,52.909333333333315,-6.2383333333333342,-9999.0,0.97966666666666646,0.26666666666666661,8.1916666666666664,2.3866666666666663,175.49933333333331,0.12999999999999992,291.35666666666668
2014-08-10,20:00,222.833,295.42366666666669,94954.800000000003,54.178333333333320,-5.8783333333333330,-9999.0,0.91366666666666663,-2.3040000000000003,0.17233333333333331,2.6800000000000002,184.91100000000000,0.12999999999999992,291.13066666666674
2014-08-10,20:30,222.854,294.02966666666669,94960.000000000000,65.562333333333342,-6.0962962962962957,-9999.0,-0.83133333333333337,-3.7193333333333327,-4.60000000000000200E-002,2.4333333333333331,275.23233333333332,0.12999999999999992,290.91966666666667
2014-08-10,21:00,222.874,292.58566666666678,94945.233333333337,75.597999999999999,-2.0333333333333332,-9999.0,0.56766666666666665,-2.5790000000000002,-3.76666666666666747E-002,1.9100000000000004,69.989666666666679,0.12999999999999992,290.74600000000009
2014-08-10,21:30,222.895,292.44766666666669,94947.533333333340,76.590999999999994,-1.9890000000000005,-9999.0,0.70566666666666700,-1.8446666666666662,-4.76666666666666836E-002,1.7133333333333332,34.955666666666666,0.12999999999999992,290.62366666666674
2014-08-10,22:00,222.916,292.28333333333336,94940.100000000006,78.461333333333343,-1.6683333333333330,-9999.0,0.41533333333333328,-1.3039999999999998,-3.56666666666666660E-002,0.93666666666666676,71.244333333333330,0.12999999999999992,290.51766666666663
2014-08-10,22:30,222.937,292.45866666666660,94931.766666666663,78.960000000000022,-2.6503333333333332,-9999.0,0.44533333333333319,-1.4706666666666672,-2.96666666666666780E-002,1.3500000000000003,110.21100000000000,0.12999999999999992,290.42733333333331
2014-08-10,23:00,222.958,292.46200000000005,94929.199999999997,75.300333333333327,-2.9949999999999997,-9999.0,0.45966666666666672,-1.5316666666666665,-4.23333333333333478E-002,2.8100000000000005,167.26700000000000,0.12999999999999992,290.32866666666672
2014-08-10,23:30,222.979,291.89199999999994,94925.899999999994,77.467666666666659,-2.6326666666666663,-9999.0,0.23566666666666666,-2.1923333333333326,-3.40000000000000094E-002,1.6166666666666665,226.25566666666666,0.12999999999999992,290.23200000000003
2014-08-11,00:00,223.000,291.71233333333345,94924.966666666660,78.873999999999995,-0.56566666666666676,-9999.0,1.2509999999999999,-1.2680000000000002,-3.66666666666666877E-002,0.57999999999999996,194.57733333333331,0.12999999999999992,290.13866666666667
